Header for Extended Forecast Station List Page

Search by: ID | Name | Date | Parm | Value | Avg | % Avg
Sort by: ID | Name | Date | Parm | Value | Avg | % Avg

Enter search or view all records.

Click on id for station plot
#IDNameDateParmValueAvg% Avg
0HWRI1BIG LOST-AT HOWELL RANCH NEAR CHILLY07-25-2016DISCHARGE (KAF)283875
1MACI1BIG LOST-MACKAY RESERVOIR NEAR MACKAY07-25-2016INFLOW (KAF)3925154
2HALI1BIG WOOD-AT HAILEY07-25-2016DISCHARGE (KAF)455582
3MAGI1BIG WOOD-MAGIC DAM07-25-2016INFLOW (KAF)212875
4BITM8BITTERROOT-NEAR MISSOULA07-25-2016DISCHARGE (KAF)19222884
5BONM8BLACKFOOT-NEAR BONNER07-25-2016DISCHARGE (KAF)10817462
6BIGI1BOISE-AT GLENWOOD BRIDGE07-25-2016DISCHARGE (KAF)290137212
7LUCI1BOISE-LUCKY PEAK DAM07-25-2016INFLOW (KAF)346MM
8PARI1BOISE-NEAR PARMA07-25-2016DISCHARGE (KAF)360220164
9HOTI1BRUNEAU-NEAR HOT SPRINGS07-25-2016DISCHARGE (KAF)192288
10BULO3BULLY CREEK-BULLY CREEK DAM07-25-2016INFLOW (KAF)0025
11BUDW1BUMPING-BUMPING LAKE DAM07-25-2016INFLOW (KAF)212295
12CHDW1CHELAN-LAKE CHELAN DAM07-25-2016INFLOW (KAF)13023456
13ABOM8CLARK FORK-ABOVE MISSOULA07-25-2016DISCHARGE (KAF)24238463
14DLGM8CLARK FORK-AT DEER LODGE07-25-2016DISCHARGE (KAF)314766
15SRGM8CLARK FORK-AT ST REGIS07-25-2016DISCHARGE (KAF)56780970
16BELM8CLARK FORK-BELOW MISSOULA07-25-2016DISCHARGE (KAF)43661771
17CABI1CLARK FORK-CABINET GORGE DAM07-25-2016INFLOW (KAF)2436310279
18NOXM8CLARK FORK-NOXON RAPIDS DAM07-25-2016INFLOW (KAF)2210293075
19DRMM8CLARK FORK-NR DRUMMOND07-25-2016DISCHARGE (KAF)81MM
20CLUW1CLE ELUM-CLE ELUM LAKE07-25-2016INFLOW (KAF)627682
21ORFI1CLEARWATER-AT OROFINO07-25-2016DISCHARGE (KAF)40150679
22SPDI1CLEARWATER-AT SPALDING07-25-2016DISCHARGE (KAF)15791036152
23COEI1COEUR D ALENE-COEUR D ALENE LAKE07-25-2016INFLOW (KAF)20323686
24CIBW1COLUMBIA-AT INTL BOUNDARY07-25-2016DISCHARGE (KAF)17774MM
25BONO3COLUMBIA-BONNEVILLE DAM07-25-2016INFLOW (KAF)26834MM
26CHJW1COLUMBIA-CHIEF JOSEPH DAM07-25-2016INFLOW (KAF)179032019189
27GCDW1COLUMBIA-GRAND COULEE DAM07-25-2016INFLOW (KAF)184922061990
28JDAO3COLUMBIA-JOHN DAY DAM07-25-2016INFLOW (KAF)257602850390
29MCDW1COLUMBIA-MCNARY DAM07-25-2016INFLOW (KAF)253282803290
30PRWW1COLUMBIA-PRIEST RAPIDS DAM07-25-2016INFLOW (KAF)188692136888
31RRHW1COLUMBIA-ROCKY REACH DAM07-25-2016INFLOW (KAF)186182096489
32TDAO3COLUMBIA-THE DALLES DAM07-25-2016INFLOW (KAF)263542910391
33WANW1COLUMBIA-WANAPUM DAM07-25-2016INFLOW (KAF)188662093590
34WELW1COLUMBIA-WELLS DAM07-25-2016INFLOW (KAF)183112044690
35DEDI1DEADWOOD-NEAR LOWMAN07-25-2016INFLOW (KAF)172086
36MODO3DESCHUTES-AT MOODY NR BIGGS07-25-2016DISCHARGE (KAF)1064110796
37ARDW1ENTIAT-NEAR ARDENVOIR07-25-2016DISCHARGE (KAF)273284
38CHEI1FALL RIVER-NEAR CHESTER07-25-2016DISCHARGE (KAF)708186
39CFMM8FLATHEAD-AT COLUMBIA FALLS07-25-2016DISCHARGE (KAF)1014119285
40KERM8FLATHEAD-KERR DAM07-25-2016INFLOW (KAF)1107141978
41TRYO3GRANDE RONDE-TROY07-25-2016DISCHARGE (KAF)14920174
42REXI1HENRYS FORK-AT REXBURG07-25-2016DISCHARGE (KAF)29937979
43ANTI1HENRYS FORK-AT ST. ANTHONY07-25-2016DISCHARGE (KAF)25231979
44IPDI1HENRYS FORK-ISLAND PARK DAM07-25-2016INFLOW (KAF)10614375
45HODO3HOOD-NEAR TUCKER BRIDGE07-25-2016DISCHARGE (KAF)103100103
46SERO3JOHN DAY-AT SERVICE CK07-25-2016DISCHARGE (KAF)386360
47KADW1KACHESS-KACHESS DAM07-25-2016INFLOW (KAF)2218124
48LAUW1KETTLE-AT LAURIER07-25-2016DISCHARGE (KAF)13615091
49PITW1KLICKITAT-NEAR PITT07-25-2016DISCHARGE (KAF)191190100
50BFEI1KOOTENAI-AT BONNERS FERRY07-25-2016STAGE (FT)MMM
51LEOI1KOOTENAI-AT LEONIA07-25-2016DISCHARGE (KAF)1698219577
52LYDM8KOOTENAI-LIBBY DAM07-25-2016INFLOW (KAF)1320168179
53LWRI1LITTLE WOOD-LITTLE WOOD DAM07-25-2016INFLOW (KAF)121577
54BERO3MALHEUR-AGENCY VALLEY DAM07-25-2016INFLOW (KAF)7894
55VALO3MALHEUR-NEAR VALE07-25-2016DISCHARGE (KAF)242691
56WRMO3MALHEUR-WARM SPRINGS DAM07-25-2016INFLOW (KAF)55100
57MYKO3MCKAY CREEK-NEAR PILOT ROCK07-25-2016DISCHARGE (KAF)1171
58PATW1METHOW-NEAR PATEROS07-25-2016DISCHARGE (KAF)11312789
59WGCM8MF FLATHEAD-NEAR WEST GLACIER07-25-2016DISCHARGE (KAF)19725079
60CLFW1NACHES-NEAR CLIFFDEL07-25-2016DISCHARGE (KAF)658279
61NACW1NACHES-NEAR NACHES07-25-2016DISCHARGE (KAF)201114176
62DWRI1NF CLEARWATER-DWORSHAK DAM07-25-2016INFLOW (KAF)29536980
63FCFM8NF FLATHEAD-NEAR COLUMBIA FALLS07-25-2016DISCHARGE (KAF)26430387
64MONO3NF JOHN DAY-AT MONUMENT07-25-2016DISCHARGE (KAF)253669
65CSDI1NF PAYETTE-CASCADE DAM07-25-2016INFLOW (KAF)7768114
66TONW1OKANOGAN-NEAR TONASKET07-25-2016DISCHARGE (KAF)28630494
67OWYO3OWYHEE-OWYHEE DAM07-25-2016INFLOW (KAF)6052117
68EMMI1PAYETTE-NEAR EMMETT07-25-2016DISCHARGE (KAF)403399101
69ALFW1PEND OREILLE-ALBENI FALLS DAM07-25-2016INFLOW (KAF)2543339375
70HOPI1PEND OREILLE-PEND OREILLE LAKE NR HOPE07-25-2016LAKE ELEVATION (FT)MMM
71PIHI1PORTNEUF-AT POCATELLO07-25-2016DISCHARGE (KAF)233271
72PRTI1PRIEST-NEAR PRIEST RIVER07-25-2016DISCHARGE (KAF)9416757
73RCCM8ROCK CREEK-NEAR CLINTON07-25-2016DISCHARGE (KAF)476671
74WHBI1SALMON-AT WHITEBIRD07-25-2016DISCHARGE (KAF)1075122288
75ARAI1SF BOISE-ANDERSON RANCH DAM07-25-2016INFLOW (KAF)667193
76HHWM8SF FLATHEAD-HUNGRY HORSE DAM07-25-2016INFLOW (KAF)20224881
77PLDI1SF SNAKE-PALISADES DAM07-25-2016INFLOW (KAF)1053123086
78SIFI1SNAKE-AB EAGLE ROCK NR IDAHO FALLS07-25-2016DISCHARGE (KAF)13101140115
79AFRI1SNAKE-AMERICAN FALLS RESERVOIR07-25-2016INFLOW (KAF)14411239116
80SNAI1SNAKE-AT BLACKFOOT07-25-2016DISCHARGE (KAF)855579148
81MILI1SNAKE-AT MILNER07-25-2016DISCHARGE (KAF)13416084
82WEII1SNAKE-AT WEISER07-25-2016DISCHARGE (KAF)2950308396
83SWAI1SNAKE-BELOW SWAN FALLS07-25-2016DISCHARGE (KAF)1873210989
84BRNI1SNAKE-BROWNLEE DAM07-25-2016INFLOW (KAF)3094313999
85IHDW1SNAKE-ICE HARBOR DAM07-25-2016INFLOW (KAF)57835747101
86JLKW4SNAKE-JACKSON LAKE AT DAM07-25-2016INFLOW (KAF)10915570
87LGSW1SNAKE-LITTLE GOOSE DAM07-25-2016INFLOW (KAF)5796583799
88LGDW1SNAKE-LOWER GRANITE DAM07-25-2016INFLOW (KAF)58695799101
89LMNW1SNAKE-LOWER MONUMENTAL DAM07-25-2016INFLOW (KAF)5778584699
90ALPW4SNAKE-NEAR ALPINE07-25-2016DISCHARGE (KAF)78688889
91ANAW1SNAKE-NEAR ANATONE07-25-2016DISCHARGE (KAF)4290469191
92BFTI1SNAKE-NEAR BLACKFOOT07-25-2016DISCHARGE (KAF)861580148
93HEII1SNAKE-NEAR HEISE07-25-2016DISCHARGE (KAF)16991518112
94JKSW4SNAKE-NEAR JACKSON07-25-2016DISCHARGE (KAF)73374399
95SHYI1SNAKE-NEAR SHELLEY07-25-2016DISCHARGE (KAF)1227912134
96LLKW1SPOKANE-AT LONGLAKE07-25-2016INFLOW (KAF)54061288
97SPOW1SPOKANE-AT SPOKANE07-25-2016DISCHARGE (KAF)389MM
98SJMI1ST JOE-AT ST MARIES07-25-2016STAGE (FT)MMM
99SATI1ST MARIES-NEAR SANTA07-25-2016DISCHARGE (KAF)141781
100STRM8ST. REGIS-NEAR ST. REGIS07-25-2016DISCHARGE (KAF)253083
101TNAW1TEANAWAY-BELOW FORKS07-25-2016DISCHARGE (KAF)81084
102TEAI1TETON-NEAR ST. ANTHONY07-25-2016DISCHARGE (KAF)13016081
103RILW1TIETON-RIMROCK LAKE NEAR RIMROCK07-25-2016INFLOW (KAF)7265112
104PDTO3UMATILLA-AT PENDLETON07-25-2016DISCHARGE (KAF)91463
105GIBO3UMATILLA-NEAR GIBBON07-25-2016DISCHARGE (KAF)101379
106UMAO3UMATILLA-NEAR UMATILLA07-25-2016DISCHARGE (KAF)3213244
107TCHW1WALLA WALLA-NEAR TOUCHET07-25-2016DISCHARGE (KAF)121393
108WSRI1WEISER-NEAR WEISER07-25-2016DISCHARGE (KAF)485095
109PESW1WENATCHEE-AT PESHASTIN07-25-2016DISCHARGE (KAF)22427881
110UNDW1WHITE SALMON-NEAR UNDERWOOD07-25-2016DISCHARGE (KAF)182157116
111RIDI1WILLOW CREEK-RIRIE DAM07-25-2016INFLOW (KAF)3661
112EASW1YAKIMA-AT EASTON07-25-2016DISCHARGE (KAF)9670136
113KIOW1YAKIMA-AT KIONA07-25-2016DISCHARGE (KAF)637470136
114UMTW1YAKIMA-AT UMTANUM07-25-2016DISCHARGE (KAF)528507104
115KEDW1YAKIMA-KEECHELUS LAKE07-25-2016INFLOW (KAF)3828136
116PARW1YAKIMA-NEAR PARKER07-25-2016DISCHARGE (KAF)345172201